Location: Unspecified
(38.9820°N, 0.0000°E)
Time: 02:26:48
(UTC+00:00)

Tiangong 2 - Pass Details

Date: 31 May 2019
Orbit: 376 x 388 km, 42.8° (Epoch: 24 June)

Event Time Altitude Azimuth Distance (km) Brightness Sun altitude
Rises 21:11:32 0° 279° (W) 2,236 5.7 -17.7°
Reaches altitude 10° 21:14:04 10° 258° (WSW) 1,380 4.2 -18.0°
Enters shadow 21:15:48 16° 224° (SW) 1,062 3.2 -18.2°
